Wetterdaten: Mittwoch, 26.04.2017
Datum Zeit Temp. A. Feuchte A. Luftdruck Regen Wind Richtung Richtung Sonnenschein Helligkeit Solar
26.04.2017 00:00 3,7 C 76 % 1008,9 hPa 0,0 l/m 8,1 km/h (2 Bft) W-NW 285 0 min 0 lux 0 W/m
26.04.2017 00:05 3,7 C 76 % 1008,9 hPa 0,0 l/m 8,3 km/h (2 Bft) W-NW 285 0 min 0 lux 0 W/m
26.04.2017 00:11 3,6 C 76 % 1008,9 hPa 0,0 l/m 7,2 km/h (2 Bft) W-NW 285 0 min 0 lux 0 W/m
26.04.2017 00:15 3,7 C 76 % 1008,9 hPa 0,0 l/m 7,0 km/h (2 Bft) W-NW 285 0 min 0 lux 0 W/m
26.04.2017 00:20 3,7 C 75 % 1008,9 hPa 0,0 l/m 7,0 km/h (2 Bft) W-NW 285 0 min 0 lux 0 W/m
26.04.2017 00:25 3,7 C 75 % 1008,9 hPa 0,0 l/m 5,4 km/h (2 Bft) W-NW 285 0 min 0 lux 0 W/m
26.04.2017 00:30 3,7 C 75 % 1008,9 hPa 0,0 l/m 5,2 km/h (1 Bft) W-NW 285 0 min 0 lux 0 W/m
26.04.2017 00:35 3,7 C 75 % 1008,9 hPa 0,0 l/m 6,1 km/h (2 Bft) W-NW 285 0 min 0 lux 0 W/m
26.04.2017 00:40 3,7 C 75 % 1008,9 hPa 0,0 l/m 6,2 km/h (2 Bft) W-NW 285 0 min 0 lux 0 W/m
26.04.2017 00:45 3,8 C 75 % 1008,9 hPa 0,0 l/m 5,6 km/h (2 Bft) W-NW 285 0 min 0 lux 0 W/m
26.04.2017 00:50 3,7 C 74 % 1008,9 hPa 0,0 l/m 5,5 km/h (2 Bft) W-NW 285 0 min 0 lux 0 W/m
26.04.2017 00:55 3,6 C 74 % 1008,9 hPa 0,0 l/m 6,1 km/h (2 Bft) W-NW 285 0 min 0 lux 0 W/m
26.04.2017 01:00 3,5 C 74 % 1008,9 hPa 0,0 l/m 6,4 km/h (2 Bft) W-NW 285 0 min 0 lux 0 W/m
26.04.2017 01:05 3,4 C 74 % 1009,9 hPa 0,0 l/m 5,2 km/h (1 Bft) W-NW 285 0 min 0 lux 0 W/m
26.04.2017 01:10 3,2 C 74 % 1009,9 hPa 0,0 l/m 5,3 km/h (1 Bft) W 280 0 min 0 lux 0 W/m
26.04.2017 01:15 3,1 C 74 % 1009,9 hPa 0,0 l/m 0,0 km/h (0 Bft) W 280 0 min 0 lux 0 W/m
26.04.2017 01:21 3,0 C 75 % 1009,9 hPa 0,0 l/m 0,9 km/h (0 Bft) W-NW 285 0 min 0 lux 0 W/m
26.04.2017 01:25 3,0 C 75 % 1008,9 hPa 0,0 l/m 6,8 km/h (2 Bft) W-NW 285 0 min 0 lux 0 W/m
26.04.2017 01:30 2,7 C 76 % 1008,9 hPa 0,0 l/m 9,9 km/h (2 Bft) SW 230 0 min 0 lux 0 W/m
26.04.2017 01:35 2,7 C 76 % 1009,9 hPa 0,0 l/m 9,2 km/h (2 Bft) SW 230 0 min 0 lux 0 W/m
26.04.2017 01:41 2,7 C 76 % 1009,9 hPa 0,0 l/m 6,9 km/h (2 Bft) SW 225 0 min 0 lux 0 W/m
26.04.2017 01:45 2,7 C 76 % 1009,9 hPa 0,0 l/m 5,0 km/h (1 Bft) SW 225 0 min 0 lux 0 W/m
26.04.2017 01:50 2,7 C 76 % 1009,9 hPa 0,0 l/m 5,2 km/h (1 Bft) SW 225 0 min 0 lux 0 W/m
26.04.2017 01:55 2,8 C 75 % 1009,9 hPa 0,0 l/m 4,2 km/h (1 Bft) SW 225 0 min 0 lux 0 W/m
26.04.2017 02:00 2,7 C 75 % 1008,9 hPa 0,0 l/m 0,0 km/h (0 Bft) SW 225 0 min 0 lux 0 W/m
26.04.2017 02:05 2,6 C 75 % 1008,9 hPa 0,0 l/m 0,0 km/h (0 Bft) SW 225 0 min 0 lux 0 W/m
26.04.2017 02:10 2,3 C 75 % 1008,9 hPa 0,0 l/m 1,0 km/h (0 Bft) SW 225 0 min 0 lux 0 W/m
26.04.2017 02:15 2,4 C 76 % 1008,9 hPa 0,0 l/m 7,0 km/h (2 Bft) SW 225 0 min 0 lux 0 W/m
26.04.2017 02:20 2,5 C 76 % 1009,9 hPa 0,0 l/m 0,5 km/h (0 Bft) SW 225 0 min 0 lux 0 W/m
26.04.2017 02:26 2,6 C 76 % 1008,9 hPa 0,0 l/m 0,3 km/h (0 Bft) SW 225 0 min 0 lux 0 W/m
26.04.2017 02:30 2,6 C 76 % 1008,9 hPa 0,0 l/m 0,0 km/h (0 Bft) SW 225 0 min 0 lux 0 W/m
26.04.2017 02:35 2,5 C 76 % 1009,9 hPa 0,0 l/m 0,0 km/h (0 Bft) SW 225 0 min 0 lux 0 W/m
26.04.2017 02:40 2,4 C 76 % 1009,9 hPa 0,0 l/m 1,0 km/h (0 Bft) SW 225 0 min 0 lux 0 W/m
26.04.2017 02:45 2,3 C 76 % 1009,9 hPa 0,0 l/m 7,4 km/h (2 Bft) SW 225 0 min 0 lux 0 W/m
26.04.2017 02:51 2,5 C 77 % 1009,9 hPa 0,0 l/m 6,1 km/h (2 Bft) SW 225 0 min 0 lux 0 W/m
26.04.2017 02:55 2,6 C 77 % 1009,9 hPa 0,0 l/m 7,5 km/h (2 Bft) SW 225 0 min 0 lux 0 W/m
26.04.2017 03:00 2,5 C 77 % 1009,9 hPa 0,0 l/m 7,0 km/h (2 Bft) SW22.5 225 0 min 0 lux 0 W/m
26.04.2017 03:05 2,5 C 77 % 1009,9 hPa 0,0 l/m 6,5 km/h (2 Bft) SW 225 0 min 0 lux 0 W/m
26.04.2017 03:10 2,5 C 77 % 1009,9 hPa 0,0 l/m 7,8 km/h (2 Bft) SW 225 0 min 0 lux 0 W/m
26.04.2017 03:15 2,5 C 77 % 1009,9 hPa 0,0 l/m 8,1 km/h (2 Bft) S-SW22.5 210 0 min 0 lux 0 W/m
26.04.2017 03:20 2,5 C 77 % 1009,9 hPa 0,0 l/m 5,1 km/h (1 Bft) SW 215 0 min 0 lux 0 W/m
26.04.2017 03:25 2,5 C 77 % 1009,9 hPa 0,0 l/m 6,1 km/h (2 Bft) S 190 0 min 0 lux 0 W/m
26.04.2017 03:30 2,4 C 78 % 1009,9 hPa 0,0 l/m 7,0 km/h (2 Bft) S22.5 185 0 min 0 lux 0 W/m
26.04.2017 03:36 2,4 C 78 % 1009,9 hPa 0,0 l/m 9,4 km/h (2 Bft) S-SO 150 0 min 0 lux 0 W/m
26.04.2017 03:40 2,4 C 78 % 1009,9 hPa 0,0 l/m 6,7 km/h (2 Bft) S-SO 155 0 min 0 lux 0 W/m
26.04.2017 03:45 2,4 C 78 % 1009,9 hPa 0,0 l/m 6,2 km/h (2 Bft) S-SO22.5 160 0 min 0 lux 0 W/m
26.04.2017 03:50 2,3 C 78 % 1009,9 hPa 0,0 l/m 0,1 km/h (0 Bft) S-SO 155 0 min 0 lux 0 W/m
26.04.2017 03:55 2,3 C 78 % 1009,9 hPa 0,0 l/m 0,0 km/h (0 Bft) S-SO 155 0 min 0 lux 0 W/m
26.04.2017 04:00 2,1 C 78 % 1009,9 hPa 0,0 l/m 0,0 km/h (0 Bft) S-SO 155 0 min 0 lux 0 W/m
26.04.2017 04:05 1,8 C 78 % 1009,9 hPa 0,0 l/m 0,1 km/h (0 Bft) S-SO 155 0 min 0 lux 0 W/m
26.04.2017 04:10 1,7 C 78 % 1009,9 hPa 0,0 l/m 5,0 km/h (1 Bft) S-SO 155 0 min 0 lux 0 W/m
26.04.2017 04:15 1,7 C 78 % 1009,9 hPa 0,0 l/m 5,3 km/h (1 Bft) S-SO 160 0 min 0 lux 0 W/m
26.04.2017 04:20 1,7 C 79 % 1009,9 hPa 0,0 l/m 4,3 km/h (1 Bft) S-SO 160 0 min 0 lux 0 W/m
26.04.2017 04:25 1,9 C 79 % 1009,9 hPa 0,0 l/m 6,3 km/h (2 Bft) S-SW45 195 0 min 0 lux 0 W/m
26.04.2017 04:30 1,9 C 79 % 1009,9 hPa 0,0 l/m 4,7 km/h (1 Bft) S-SW 200 0 min 0 lux 0 W/m
26.04.2017 04:35 1,8 C 78 % 1009,9 hPa 0,0 l/m 3,2 km/h (1 Bft) S-SW 195 0 min 0 lux 0 W/m
26.04.2017 04:40 1,6 C 78 % 1009,9 hPa 0,0 l/m 6,4 km/h (2 Bft) SW 230 0 min 0 lux 0 W/m
26.04.2017 04:46 1,5 C 79 % 1009,9 hPa 0,0 l/m 7,3 km/h (2 Bft) SW 230 0 min 0 lux 0 W/m
26.04.2017 04:50 1,4 C 79 % 1009,9 hPa 0,0 l/m 7,9 km/h (2 Bft) SW 230 0 min 0 lux 0 W/m
26.04.2017 04:55 1,2 C 79 % 1008,9 hPa 0,0 l/m 6,8 km/h (2 Bft) SW 225 0 min 0 lux 0 W/m
26.04.2017 05:00 1,3 C 80 % 1008,9 hPa 0,0 l/m 6,8 km/h (2 Bft) SW 225 0 min 0 lux 0 W/m
26.04.2017 05:05 1,5 C 80 % 1008,9 hPa 0,0 l/m 5,4 km/h (2 Bft) SW 215 0 min 0 lux 0 W/m
26.04.2017 05:10 1,5 C 79 % 1008,9 hPa 0,0 l/m 0,6 km/h (0 Bft) SW 215 0 min 0 lux 0 W/m
26.04.2017 05:15 1,6 C 80 % 1008,9 hPa 0,0 l/m 0,0 km/h (0 Bft) SW 215 0 min 0 lux 0 W/m
26.04.2017 05:20 1,6 C 79 % 1008,9 hPa 0,0 l/m 8,4 km/h (2 Bft) S-SW22.5 210 0 min 0 lux 0 W/m
26.04.2017 05:25 1,5 C 79 % 1008,9 hPa 0,0 l/m 11,1 km/h (2 Bft) SW22.5 225 0 min 0 lux 0 W/m
26.04.2017 05:30 1,4 C 79 % 1008,9 hPa 0,0 l/m 8,9 km/h (2 Bft) SW22.5 230 0 min 0 lux 0 W/m
26.04.2017 05:35 1,3 C 80 % 1008,9 hPa 0,0 l/m 6,8 km/h (2 Bft) SW 230 0 min 0 lux 0 W/m
26.04.2017 05:40 1,3 C 80 % 1008,9 hPa 0,0 l/m 5,3 km/h (1 Bft) SW 230 0 min 0 lux 0 W/m
26.04.2017 05:45 1,3 C 80 % 1008,9 hPa 0,0 l/m 5,9 km/h (2 Bft) SW 225 0 min 0 lux 0 W/m
26.04.2017 05:50 1,5 C 80 % 1008,9 hPa 0,0 l/m 12,2 km/h (2 Bft) S-SW22.5 210 0 min 0 lux 0 W/m
26.04.2017 05:56 1,5 C 80 % 1008,9 hPa 0,0 l/m 10,3 km/h (2 Bft) SW22.5 220 0 min 0 lux 0 W/m
26.04.2017 06:00 1,5 C 79 % 1008,9 hPa 0,0 l/m 6,2 km/h (2 Bft) S-SW22.5 205 0 min 0 lux 0 W/m
26.04.2017 06:05 1,3 C 79 % 1008,9 hPa 0,0 l/m 0,7 km/h (0 Bft) S22.5 190 0 min 0 lux 0 W/m
26.04.2017 06:10 1,3 C 80 % 1008,9 hPa 0,0 l/m 6,2 km/h (2 Bft) S 170 0 min 0 lux 0 W/m
26.04.2017 06:15 1,4 C 80 % 1008,9 hPa 0,0 l/m 4,2 km/h (1 Bft) S 170 0 min 0 lux 0 W/m
26.04.2017 06:20 1,5 C 80 % 1008,9 hPa 0,0 l/m 0,1 km/h (0 Bft) S 170 0 min 0 lux 0 W/m
26.04.2017 06:25 1,7 C 80 % 1008,9 hPa 0,0 l/m 0,9 km/h (0 Bft) S 170 0 min 0 lux 0 W/m
26.04.2017 06:30 1,8 C 80 % 1008,9 hPa 0,0 l/m 0,7 km/h (0 Bft) S 170 0 min 0 lux 0 W/m
26.04.2017 06:35 1,8 C 80 % 1008,9 hPa 0,0 l/m 2,5 km/h (1 Bft) S45 185 0 min 0 lux 0 W/m
26.04.2017 06:41 1,8 C 80 % 1008,9 hPa 0,0 l/m 10,2 km/h (2 Bft) SW22.5 230 0 min 0 lux 0 W/m
26.04.2017 06:45 1,8 C 80 % 1008,9 hPa 0,0 l/m 11,3 km/h (2 Bft) SW22.5 230 0 min 0 lux 0 W/m
26.04.2017 06:50 1,8 C 80 % 1008,9 hPa 0,0 l/m 10,5 km/h (2 Bft) SW22.5 225 0 min 0 lux 0 W/m
26.04.2017 06:55 1,8 C 80 % 1008,9 hPa 0,0 l/m 12,8 km/h (3 Bft) SW22.5 225 0 min 1,83 klux 13 W/m
26.04.2017 07:00 1,7 C 80 % 1009,9 hPa 0,0 l/m 9,8 km/h (2 Bft) SW 230 0 min 1,83 klux 13 W/m
26.04.2017 07:05 1,7 C 80 % 1009,9 hPa 0,0 l/m 12,6 km/h (3 Bft) SW22.5 225 0 min 1,83 klux 13 W/m
26.04.2017 07:10 1,8 C 80 % 1009,9 hPa 0,0 l/m 10,7 km/h (2 Bft) SW22.5 215 0 min 1,83 klux 13 W/m
26.04.2017 07:15 1,9 C 80 % 1009,9 hPa 0,0 l/m 10,1 km/h (2 Bft) SW22.5 215 0 min 1,83 klux 13 W/m
26.04.2017 07:20 2,1 C 80 % 1009,9 hPa 0,0 l/m 6,4 km/h (2 Bft) S-SW22.5 195 0 min 1,83 klux 13 W/m
26.04.2017 07:25 2,2 C 79 % 1009,9 hPa 0,0 l/m 7,4 km/h (2 Bft) S-SW22.5 210 0 min 1,83 klux 13 W/m
26.04.2017 07:30 2,3 C 79 % 1009,9 hPa 0,0 l/m 7,1 km/h (2 Bft) S-SW22.5 205 0 min 1,83 klux 13 W/m
26.04.2017 07:35 2,3 C 79 % 1009,9 hPa 0,0 l/m 7,6 km/h (2 Bft) SW22.5 215 0 min 1,83 klux 13 W/m
26.04.2017 07:40 3,1 C 79 % 1009,9 hPa 0,0 l/m 15,6 km/h (3 Bft) SW22.5 225 0 min 1,83 klux 13 W/m
26.04.2017 07:45 3,1 C 79 % 1009,9 hPa 0,0 l/m 13,3 km/h (3 Bft) SW22.5 225 0 min 1,83 klux 13 W/m
26.04.2017 07:51 3,5 C 78 % 1009,9 hPa 0,0 l/m 13,7 km/h (3 Bft) SW22.5 235 0 min 1,83 klux 13 W/m
26.04.2017 07:55 3,3 C 78 % 1009,9 hPa 0,0 l/m 13,7 km/h (3 Bft) SW22.5 235 0 min 1,83 klux 13 W/m
26.04.2017 08:00 3,3 C 78 % 1009,9 hPa 0,0 l/m 11,3 km/h (2 Bft) S-SW22.5 205 0 min 1,83 klux 13 W/m
26.04.2017 08:05 3,2 C 78 % 1009,9 hPa 0,0 l/m 10,3 km/h (2 Bft) SW 230 0 min 1,83 klux 13 W/m
26.04.2017 08:10 3,3 C 78 % 1009,9 hPa 0,0 l/m 7,0 km/h (2 Bft) SW 235 0 min 1,83 klux 13 W/m
26.04.2017 08:15 3,3 C 78 % 1009,9 hPa 0,0 l/m 3,9 km/h (1 Bft) SW 230 0 min 1,83 klux 13 W/m
26.04.2017 08:20 3,3 C 79 % 1009,9 hPa 0,0 l/m 4,8 km/h (1 Bft) W-SW 240 0 min 1,83 klux 13 W/m
26.04.2017 08:25 3,4 C 79 % 1009,9 hPa 0,0 l/m 11,6 km/h (2 Bft) W-SW22.5 240 0 min 1,83 klux 13 W/m
26.04.2017 08:30 3,7 C 79 % 1009,9 hPa 0,0 l/m 9,7 km/h (2 Bft) SW22.5 225 0 min 1,83 klux 13 W/m
26.04.2017 08:35 3,8 C 79 % 1009,9 hPa 0,0 l/m 10,1 km/h (2 Bft) SW22.5 220 0 min 1,83 klux 13 W/m
26.04.2017 08:40 4,0 C 79 % 1009,9 hPa 0,0 l/m 10,3 km/h (2 Bft) SW22.5 225 0 min 1,83 klux 13 W/m
26.04.2017 08:45 4,2 C 79 % 1009,8 hPa 0,0 l/m 6,9 km/h (2 Bft) SW22.5 230 0 min 1,83 klux 13 W/m
26.04.2017 08:50 4,3 C 79 % 1009,8 hPa 0,0 l/m 7,8 km/h (2 Bft) W-SW22.5 250 0 min 1,83 klux 13 W/m
26.04.2017 08:55 4,4 C 79 % 1009,8 hPa 0,0 l/m 7,4 km/h (2 Bft) W-SW22.5 250 0 min 1,83 klux 13 W/m
26.04.2017 09:01 4,4 C 78 % 1009,8 hPa 0,0 l/m 10,0 km/h (2 Bft) W-SW22.5 255 0 min 1,83 klux 13 W/m
26.04.2017 09:05 4,3 C 79 % 1009,8 hPa 0,0 l/m 9,7 km/h (2 Bft) W22.5 275 0 min 1,83 klux 13 W/m
26.04.2017 09:10 4,3 C 79 % 1009,8 hPa 0,0 l/m 7,9 km/h (2 Bft) W-SW22.5 240 0 min 1,83 klux 13 W/m
26.04.2017 09:15 4,5 C 79 % 1009,8 hPa 0,0 l/m 8,5 km/h (2 Bft) W-SW22.5 240 0 min 1,83 klux 13 W/m
26.04.2017 09:20 4,6 C 79 % 1009,8 hPa 0,0 l/m 12,8 km/h (3 Bft) W-SW22.5 250 0 min 11,4 klux 78 W/m
26.04.2017 09:25 4,6 C 79 % 1009,8 hPa 0,0 l/m 9,2 km/h (2 Bft) W-SW22.5 255 0 min 11,4 klux 78 W/m
26.04.2017 09:30 4,6 C 78 % 1009,8 hPa 0,0 l/m 10,3 km/h (2 Bft) W-SW22.5 255 0 min 11,4 klux 78 W/m
26.04.2017 09:35 4,7 C 78 % 1009,8 hPa 0,0 l/m 6,8 km/h (2 Bft) S-SW22.5 210 0 min 11,4 klux 78 W/m
26.04.2017 09:40 4,6 C 78 % 1010,8 hPa 0,0 l/m 6,1 km/h (2 Bft) SW 220 0 min 11,4 klux 78 W/m
26.04.2017 09:45 4,6 C 78 % 1009,8 hPa 0,0 l/m 7,0 km/h (2 Bft) W-SW22.5 240 0 min 11,4 klux 78 W/m
26.04.2017 09:50 4,7 C 78 % 1009,8 hPa 0,0 l/m 4,4 km/h (1 Bft) SW 230 0 min 11,4 klux 78 W/m
26.04.2017 09:55 4,9 C 78 % 1009,8 hPa 0,0 l/m 6,7 km/h (2 Bft) W-SW 250 0 min 11,4 klux 78 W/m
26.04.2017 10:00 4,8 C 78 % 1010,8 hPa 0,0 l/m 12,1 km/h (2 Bft) W22.5 280 0 min 11,4 klux 78 W/m
26.04.2017 10:05 4,7 C 78 % 1010,8 hPa 0,0 l/m 13,0 km/h (3 Bft) W-NW22.5 290 0 min 11,4 klux 78 W/m
26.04.2017 10:10 4,9 C 78 % 1010,8 hPa 0,0 l/m 12,0 km/h (2 Bft) W-SW22.5 245 0 min 11,4 klux 78 W/m
26.04.2017 10:15 4,9 C 78 % 1010,8 hPa 0,0 l/m 14,3 km/h (3 Bft) W22.5 270 0 min 11,4 klux 78 W/m
26.04.2017 10:20 5,1 C 77 % 1010,8 hPa 0,0 l/m 17,8 km/h (3 Bft) W22.5 270 0 min 11,4 klux 78 W/m
26.04.2017 10:25 5,1 C 76 % 1010,8 hPa 0,0 l/m 15,5 km/h (3 Bft) W22.5 280 0 min 11,4 klux 78 W/m
26.04.2017 10:30 5,1 C 76 % 1010,8 hPa 0,0 l/m 15,9 km/h (3 Bft) W-NW22.5 295 0 min 15,8 klux 108 W/m
26.04.2017 10:35 5,1 C 76 % 1010,8 hPa 0,0 l/m 15,9 km/h (3 Bft) W-NW22.5 295 0 min 19,8 klux 135 W/m
26.04.2017 10:40 5,2 C 76 % 1010,8 hPa 0,0 l/m 10,2 km/h (2 Bft) NW22.5 310 0 min 19,8 klux 135 W/m
26.04.2017 10:45 5,7 C 76 % 1010,8 hPa 0,0 l/m 9,4 km/h (2 Bft) W-SW45 240 5 min 78,6 klux 538 W/m
26.04.2017 10:50 5,9 C 75 % 1010,8 hPa 0,0 l/m 14,0 km/h (3 Bft) W22.5 270 5 min 78,6 klux 538 W/m
26.04.2017 10:55 6,0 C 74 % 1010,8 hPa 0,0 l/m 11,5 km/h (2 Bft) W-SW22.5 255 5 min 81,6 klux 558 W/m
26.04.2017 11:00 6,0 C 74 % 1010,8 hPa 0,0 l/m 11,5 km/h (2 Bft) W-SW22.5 255 5 min 81,6 klux 558 W/m
26.04.2017 11:05 6,0 C 74 % 1010,8 hPa 0,0 l/m 11,5 km/h (2 Bft) W-SW22.5 255 5 min 81,6 klux 558 W/m
26.04.2017 11:10 6,0 C 74 % 1010,8 hPa 0,0 l/m 10,9 km/h (2 Bft) NW22.5 305 5 min 65,0 klux 445 W/m
26.04.2017 11:15 6,4 C 73 % 1010,8 hPa 0,0 l/m 15,5 km/h (3 Bft) W-NW22.5 300 0 min 28,2 klux 193 W/m
26.04.2017 11:20 6,4 C 73 % 1010,8 hPa 0,0 l/m 11,1 km/h (2 Bft) NW 305 5 min 89,0 klux 609 W/m
26.04.2017 11:25 7,4 C 71 % 1010,8 hPa 0,0 l/m 5,7 km/h (2 Bft) N-NW22.5 335 0 min 38,8 klux 265 W/m
26.04.2017 11:30 7,7 C 67 % 1010,8 hPa 0,0 l/m 11,8 km/h (2 Bft) N 355 0 min 18,3 klux 125 W/m
26.04.2017 11:35 7,0 C 69 % 1010,8 hPa 0,0 l/m 16,1 km/h (3 Bft) NW45 305 0 min 13,2 klux 90 W/m
26.04.2017 11:40 6,9 C 70 % 1010,8 hPa 0,0 l/m 13,4 km/h (3 Bft) NW22.5 305 0 min 18,0 klux 123 W/m
26.04.2017 11:45 6,8 C 70 % 1010,8 hPa 0,0 l/m 11,8 km/h (2 Bft) W45 280 0 min 26,8 klux 183 W/m
26.04.2017 11:50 7,1 C 68 % 1010,8 hPa 0,0 l/m 10,0 km/h (2 Bft) NW 310 0 min 54,1 klux 370 W/m
26.04.2017 11:55 7,2 C 68 % 1010,8 hPa 0,0 l/m 5,8 km/h (2 Bft) N-NW 335 5 min 82,3 klux 563 W/m
26.04.2017 12:00 7,9 C 65 % 1010,8 hPa 0,0 l/m 10,8 km/h (2 Bft) N-NW 335 5 min 82,8 klux 566 W/m
26.04.2017 12:05 8,5 C 64 % 1010,8 hPa 0,0 l/m 0,6 km/h (0 Bft) N-NW45 345 5 min 82,0 klux 561 W/m
26.04.2017 12:10 8,8 C 63 % 1010,8 hPa 0,0 l/m 8,5 km/h (2 Bft) NO45 35 5 min 73,0 klux 499 W/m
26.04.2017 12:15 8,8 C 61 % 1010,8 hPa 0,0 l/m 11,0 km/h (2 Bft) N22.5 350 5 min 73,0 klux 499 W/m
26.04.2017 12:20 9,2 C 63 % 1010,8 hPa 0,0 l/m 6,2 km/h (2 Bft) N22.5 360 5 min 73,0 klux 499 W/m
26.04.2017 12:25 9,2 C 63 % 1010,8 hPa 0,0 l/m 11,0 km/h (2 Bft) O-NO45 65 5 min 73,0 klux 499 W/m
26.04.2017 12:30 9,2 C 63 % 1010,8 hPa 0,0 l/m 6,3 km/h (2 Bft) O-SO22.5 115 5 min 73,0 klux 499 W/m
26.04.2017 12:35 10,2 C 60 % 1010,8 hPa 0,0 l/m 7,1 km/h (2 Bft) SW 215 5 min 73,0 klux 499 W/m
26.04.2017 12:40 10,2 C 60 % 1010,8 hPa 0,0 l/m 0,0 km/h (0 Bft) N 10 5 min 73,0 klux 499 W/m
26.04.2017 12:45 10,2 C 60 % 1010,8 hPa 0,0 l/m 15,5 km/h (3 Bft) N-NO45 25 5 min 73,0 klux 499 W/m
26.04.2017 12:50 10,2 C 60 % 1010,8 hPa 0,0 l/m 9,4 km/h (2 Bft) N22.5 350 5 min 73,0 klux 499 W/m
26.04.2017 12:55 10,2 C 60 % 1010,8 hPa 0,0 l/m 9,6 km/h (2 Bft) N-NW67.5 345 5 min 73,0 klux 499 W/m
26.04.2017 13:00 10,2 C 60 % 1010,8 hPa 0,0 l/m 11,1 km/h (2 Bft) N22.5 5 0 min 11,5 klux 79 W/m
26.04.2017 13:05 10,2 C 60 % 1010,8 hPa 0,0 l/m 6,7 km/h (2 Bft) N 350 0 min 11,5 klux 79 W/m
26.04.2017 13:10 10,2 C 60 % 1010,8 hPa 0,0 l/m 0,3 km/h (0 Bft) N-NW 335 0 min 11,5 klux 79 W/m
26.04.2017 13:15 10,2 C 60 % 1010,8 hPa 0,0 l/m 0,3 km/h (0 Bft) N-NW 330 0 min 11,5 klux 79 W/m
26.04.2017 13:20 10,2 C 60 % 1010,8 hPa 0,0 l/m 8,6 km/h (2 Bft) N-NW 330 0 min 11,5 klux 79 W/m
26.04.2017 13:25 10,2 C 60 % 1010,8 hPa 0,0 l/m 6,4 km/h (2 Bft) N 355 0 min 11,5 klux 79 W/m
26.04.2017 13:30 10,2 C 58 % 1010,8 hPa 0,0 l/m 7,8 km/h (2 Bft) N-NW22.5 335 0 min 11,5 klux 79 W/m
26.04.2017 13:35 10,2 C 58 % 1010,8 hPa 0,0 l/m 6,5 km/h (2 Bft) S-SW22.5 205 0 min 11,5 klux 79 W/m
26.04.2017 13:40 10,2 C 58 % 1010,8 hPa 0,0 l/m 14,3 km/h (3 Bft) SW45 215 0 min 11,5 klux 79 W/m
26.04.2017 13:45 10,2 C 58 % 1010,8 hPa 0,0 l/m 15,0 km/h (3 Bft) W-SW67.5 250 0 min 11,5 klux 79 W/m
26.04.2017 13:51 10,2 C 58 % 1010,8 hPa 0,0 l/m 19,6 km/h (3 Bft) W67.5 265 0 min 11,5 klux 79 W/m
26.04.2017 13:55 10,2 C 58 % 1010,8 hPa 0,0 l/m 15,3 km/h (3 Bft) N-NW45 345 0 min 11,5 klux 79 W/m
26.04.2017 14:00 8,2 C 62 % 1010,8 hPa 0,0 l/m 26,5 km/h (4 Bft) NW22.5 320 0 min 11,5 klux 79 W/m
26.04.2017 14:05 7,1 C 64 % 1010,8 hPa 0,1 l/m 26,9 km/h (4 Bft) NW22.5 325 0 min 11,5 klux 79 W/m
26.04.2017 14:10 6,6 C 66 % 1011,8 hPa 0,4 l/m 23,8 km/h (4 Bft) N-NW22.5 335 0 min 11,5 klux 79 W/m
26.04.2017 14:15 6,6 C 66 % 1011,8 hPa 0,0 l/m 18,5 km/h (3 Bft) N-NW22.5 335 0 min 11,5 klux 79 W/m
26.04.2017 14:20 6,9 C 69 % 1011,8 hPa 0,1 l/m 21,2 km/h (4 Bft) NW22.5 325 0 min 11,5 klux 79 W/m
26.04.2017 14:25 6,9 C 69 % 1011,8 hPa 0,0 l/m 8,3 km/h (2 Bft) SW 230 0 min 11,5 klux 79 W/m
26.04.2017 14:30 6,9 C 69 % 1010,8 hPa 0,0 l/m 14,0 km/h (3 Bft) W-SW22.5 240 0 min 11,5 klux 79 W/m
26.04.2017 14:35 8,1 C 62 % 1010,8 hPa 0,0 l/m 14,0 km/h (3 Bft) W-SW22.5 240 0 min 11,5 klux 79 W/m
26.04.2017 14:40 8,4 C 62 % 1010,8 hPa 0,0 l/m 1,0 km/h (0 Bft) SW 215 0 min 11,5 klux 79 W/m
26.04.2017 14:45 8,4 C 62 % 1010,8 hPa 0,0 l/m 0,1 km/h (0 Bft) S22.5 180 0 min 11,5 klux 79 W/m
26.04.2017 14:50 8,4 C 62 % 1010,8 hPa 0,0 l/m 0,4 km/h (0 Bft) S-SO 165 0 min 11,5 klux 79 W/m
26.04.2017 14:55 8,4 C 62 % 1010,8 hPa 0,0 l/m 0,4 km/h (0 Bft) S-SO 165 0 min 11,5 klux 79 W/m
26.04.2017 15:00 8,4 C 62 % 1010,8 hPa 0,0 l/m 0,0 km/h (0 Bft) S-SO 165 0 min 11,5 klux 79 W/m
26.04.2017 15:05 8,4 C 62 % 1010,8 hPa 0,0 l/m 6,7 km/h (2 Bft) NW45 325 0 min 11,5 klux 79 W/m
26.04.2017 15:10 8,4 C 62 % 1010,8 hPa 0,0 l/m 0,2 km/h (0 Bft) N-NW22.5 330 0 min 11,5 klux 79 W/m
26.04.2017 15:16 10,8 C 48 % 1010,8 hPa 0,0 l/m 7,8 km/h (2 Bft) N-NO22.5 15 0 min 11,5 klux 79 W/m
26.04.2017 15:20 10,8 C 48 % 1010,8 hPa 0,0 l/m 7,9 km/h (2 Bft) NO45 40 0 min 11,5 klux 79 W/m
26.04.2017 15:25 11,8 C 47 % 1010,7 hPa 0,0 l/m 1,9 km/h (1 Bft) O 90 0 min 11,5 klux 79 W/m
26.04.2017 15:30 11,6 C 46 % 1010,8 hPa 0,0 l/m 8,6 km/h (2 Bft) O-NO67.5 70 0 min 11,5 klux 79 W/m
26.04.2017 15:35 11,6 C 46 % 1010,8 hPa 0,0 l/m 13,3 km/h (3 Bft) NO45 35 0 min 11,5 klux 79 W/m
26.04.2017 15:40 11,4 C 44 % 1010,8 hPa 0,0 l/m 12,9 km/h (3 Bft) N 350 0 min 11,5 klux 79 W/m
26.04.2017 15:45 11,2 C 46 % 1010,8 hPa 0,0 l/m 5,1 km/h (1 Bft) NW22.5 310 5 min 76,3 klux 522 W/m
26.04.2017 15:50 11,7 C 47 % 1010,8 hPa 0,0 l/m 12,0 km/h (2 Bft) NO22.5 55 0 min 19,8 klux 135 W/m
26.04.2017 15:55 11,0 C 50 % 1010,8 hPa 0,0 l/m 5,6 km/h (2 Bft) NO22.5 35 0 min 12,6 klux 86 W/m
26.04.2017 16:00 10,6 C 50 % 1010,8 hPa 0,0 l/m 16,3 km/h (3 Bft) W-NW67.5 300 0 min 10,0 klux 68 W/m
26.04.2017 16:05 9,2 C 58 % 1010,8 hPa 0,0 l/m 27,3 km/h (5 Bft) W-NW22.5 300 0 min 9,7 klux 66 W/m
26.04.2017 16:10 8,6 C 60 % 1010,8 hPa 0,0 l/m 31,1 km/h (5 Bft) NW22.5 305 0 min 11,3 klux 77 W/m
26.04.2017 16:15 8,5 C 62 % 1010,8 hPa 0,0 l/m 32,2 km/h (5 Bft) W67.5 275 0 min 13,9 klux 95 W/m
26.04.2017 16:20 8,4 C 63 % 1010,8 hPa 0,0 l/m 28,1 km/h (5 Bft) W22.5 265 0 min 15,7 klux 107 W/m
26.04.2017 16:25 8,3 C 64 % 1010,8 hPa 0,0 l/m 22,9 km/h (4 Bft) W-SW22.5 240 0 min 16,1 klux 110 W/m
26.04.2017 16:30 8,5 C 64 % 1010,8 hPa 0,0 l/m 20,7 km/h (4 Bft) W-SW22.5 240 0 min 25,7 klux 176 W/m
26.04.2017 16:35 8,7 C 61 % 1010,8 hPa 0,0 l/m 10,8 km/h (2 Bft) SW22.5 220 0 min 27,8 klux 190 W/m
26.04.2017 16:40 9,1 C 60 % 1010,8 hPa 0,0 l/m 5,0 km/h (1 Bft) SW 220 0 min 28,6 klux 196 W/m
26.04.2017 16:45 9,6 C 61 % 1010,8 hPa 0,0 l/m 5,2 km/h (1 Bft) SW 220 5 min 52,8 klux 361 W/m
26.04.2017 16:50 10,0 C 59 % 1010,8 hPa 0,0 l/m 5,6 km/h (2 Bft) SW 215 0 min 31,5 klux 215 W/m
26.04.2017 16:55 10,2 C 58 % 1010,8 hPa 0,0 l/m 6,4 km/h (2 Bft) SW 215 0 min 38,3 klux 262 W/m
26.04.2017 17:00 10,4 C 54 % 1010,8 hPa 0,0 l/m 5,6 km/h (2 Bft) S-SW 200 0 min 26,3 klux 180 W/m
26.04.2017 17:05 10,6 C 56 % 1010,8 hPa 0,0 l/m 3,2 km/h (1 Bft) S-SW 200 0 min 22,0 klux 150 W/m
26.04.2017 17:10 10,6 C 53 % 1010,8 hPa 0,0 l/m 4,3 km/h (1 Bft) S-SW 200 0 min 23,2 klux 159 W/m
26.04.2017 17:15 10,6 C 54 % 1010,8 hPa 0,0 l/m 0,0 km/h (0 Bft) S-SW 200 0 min 23,5 klux 161 W/m
26.04.2017 17:20 10,6 C 51 % 1010,8 hPa 0,0 l/m 0,0 km/h (0 Bft) S-SW 200 0 min 20,0 klux 137 W/m
26.04.2017 17:25 10,5 C 52 % 1010,8 hPa 0,0 l/m 5,7 km/h (2 Bft) SW22.5 230 0 min 19,4 klux 133 W/m
26.04.2017 17:30 10,5 C 53 % 1010,8 hPa 0,0 l/m 0,0 km/h (0 Bft) W 265 0 min 18,8 klux 129 W/m
26.04.2017 17:35 10,6 C 51 % 1010,8 hPa 0,0 l/m 1,5 km/h (1 Bft) W22.5 270 0 min 21,1 klux 144 W/m
26.04.2017 17:40 10,7 C 51 % 1010,8 hPa 0,0 l/m 6,4 km/h (2 Bft) NW22.5 320 0 min 21,1 klux 144 W/m
26.04.2017 17:45 10,5 C 51 % 1010,8 hPa 0,0 l/m 19,5 km/h (3 Bft) N-NO22.5 20 0 min 13,4 klux 92 W/m
26.04.2017 17:51 10,3 C 52 % 1010,8 hPa 0,0 l/m 17,6 km/h (3 Bft) N-NO45 25 0 min 13,4 klux 92 W/m
26.04.2017 17:55 10,2 C 53 % 1010,8 hPa 0,0 l/m 20,6 km/h (4 Bft) NO22.5 50 0 min 13,4 klux 92 W/m
26.04.2017 18:00 9,9 C 51 % 1010,8 hPa 0,0 l/m 22,3 km/h (4 Bft) O-NO45 75 0 min 13,4 klux 92 W/m
26.04.2017 18:05 9,8 C 52 % 1010,8 hPa 0,0 l/m 8,7 km/h (2 Bft) O-NO22.5 65 0 min 20,4 klux 140 W/m
26.04.2017 18:10 9,9 C 52 % 1010,8 hPa 0,0 l/m 8,9 km/h (2 Bft) O-NO22.5 70 0 min 20,4 klux 140 W/m
26.04.2017 18:15 9,9 C 53 % 1010,8 hPa 0,0 l/m 7,4 km/h (2 Bft) O-SO45 115 0 min 20,4 klux 140 W/m
26.04.2017 18:20 9,7 C 55 % 1010,8 hPa 0,0 l/m 1,3 km/h (1 Bft) O-SO22.5 110 0 min 20,4 klux 140 W/m
26.04.2017 18:25 10,0 C 56 % 1010,8 hPa 0,0 l/m 2,8 km/h (1 Bft) O-SO45 120 0 min 20,4 klux 140 W/m
26.04.2017 18:31 9,9 C 55 % 1010,8 hPa 0,0 l/m 9,2 km/h (2 Bft) O45 90 0 min 20,4 klux 140 W/m
26.04.2017 18:35 9,7 C 55 % 1010,8 hPa 0,0 l/m 9,2 km/h (2 Bft) O45 90 0 min 14,1 klux 96 W/m
26.04.2017 18:40 9,9 C 55 % 1010,8 hPa 0,0 l/m 1,5 km/h (1 Bft) O 80 0 min 14,1 klux 96 W/m
26.04.2017 18:45 9,9 C 55 % 1010,8 hPa 0,0 l/m 12,1 km/h (2 Bft) NO22.5 40 5 min 24,1 klux 165 W/m
26.04.2017 18:50 9,8 C 53 % 1010,8 hPa 0,0 l/m 8,1 km/h (2 Bft) O22.5 95 5 min 24,1 klux 165 W/m
26.04.2017 18:56 9,2 C 58 % 1010,8 hPa 0,0 l/m 11,1 km/h (2 Bft) O-SO45 110 6 min 24,1 klux 165 W/m
26.04.2017 19:00 9,2 C 58 % 1010,8 hPa 0,0 l/m 11,1 km/h (2 Bft) O-SO45 110 0 min 9,4 klux 65 W/m
26.04.2017 19:05 9,0 C 60 % 1010,8 hPa 0,0 l/m 10,2 km/h (2 Bft) O22.5 90 0 min 9,4 klux 65 W/m
26.04.2017 19:11 8,9 C 62 % 1010,8 hPa 0,0 l/m 9,6 km/h (2 Bft) O22.5 100 0 min 7,66 klux 52 W/m
26.04.2017 19:15 8,8 C 62 % 1010,8 hPa 0,0 l/m 6,3 km/h (2 Bft) O-SO22.5 105 0 min 7,66 klux 52 W/m
26.04.2017 19:20 8,7 C 62 % 1010,8 hPa 0,0 l/m 6,5 km/h (2 Bft) O-NO22.5 75 0 min 5,52 klux 38 W/m
26.04.2017 19:25 8,6 C 63 % 1011,8 hPa 0,0 l/m 8,4 km/h (2 Bft) O22.5 100 0 min 5,21 klux 36 W/m
26.04.2017 19:30 8,5 C 64 % 1011,8 hPa 0,0 l/m 1,4 km/h (1 Bft) O 95 0 min 9,2 klux 63 W/m
26.04.2017 19:36 8,6 C 64 % 1011,8 hPa 0,0 l/m 5,6 km/h (2 Bft) N-NO 30 6 min 14,5 klux 99 W/m
26.04.2017 19:40 9,1 C 64 % 1011,8 hPa 0,0 l/m 5,7 km/h (2 Bft) N-NO22.5 20 4 min 19,2 klux 131 W/m
26.04.2017 19:45 9,5 C 62 % 1011,8 hPa 0,0 l/m 5,4 km/h (2 Bft) N 360 5 min 14,9 klux 102 W/m
26.04.2017 19:50 9,6 C 60 % 1011,8 hPa 0,0 l/m 5,4 km/h (2 Bft) N22.5 10 5 min 13,8 klux 94 W/m
26.04.2017 19:55 9,7 C 60 % 1011,8 hPa 0,0 l/m 5,2 km/h (1 Bft) N-NO 20 5 min 13,9 klux 95 W/m
26.04.2017 20:01 9,6 C 59 % 1011,8 hPa 0,0 l/m 6,8 km/h (2 Bft) NO 45 6 min 13,9 klux 95 W/m
26.04.2017 20:05 9,6 C 60 % 1011,8 hPa 0,0 l/m 9,4 km/h (2 Bft) NO22.5 45 4 min 13,9 klux 95 W/m
26.04.2017 20:10 9,2 C 60 % 1011,8 hPa 0,0 l/m 0,2 km/h (0 Bft) NO 45 0 min 2,90 klux 20 W/m
26.04.2017 20:15 8,7 C 61 % 1011,8 hPa 0,0 l/m 7,2 km/h (2 Bft) O22.5 85 0 min 1,95 klux 13 W/m
26.04.2017 20:20 8,4 C 61 % 1011,8 hPa 0,0 l/m 1,6 km/h (1 Bft) O-SO22.5 110 0 min 1,95 klux 13 W/m
26.04.2017 20:25 8,3 C 61 % 1011,8 hPa 0,0 l/m 3,8 km/h (1 Bft) O 95 0 min 1,45 klux 10 W/m
26.04.2017 20:30 8,2 C 62 % 1011,8 hPa 0,0 l/m 3,9 km/h (1 Bft) O 95 0 min 1,07 klux 7 W/m
26.04.2017 20:35 8,0 C 62 % 1011,8 hPa 0,0 l/m 4,5 km/h (1 Bft) O 90 0 min 768 lux 5 W/m
26.04.2017 20:41 7,9 C 63 % 1011,8 hPa 0,0 l/m 8,5 km/h (2 Bft) NO22.5 50 0 min 550 lux 4 W/m
26.04.2017 20:45 7,6 C 64 % 1011,8 hPa 0,0 l/m 0,6 km/h (0 Bft) N-NW 340 0 min 499 lux 0 W/m
26.04.2017 20:50 7,6 C 64 % 1011,8 hPa 0,0 l/m 0,7 km/h (0 Bft) N 350 0 min 301 lux 0 W/m
26.04.2017 20:55 7,6 C 65 % 1011,8 hPa 0,0 l/m 12,8 km/h (3 Bft) N-NW45 330 0 min 301 lux 0 W/m
26.04.2017 21:00 7,3 C 64 % 1011,8 hPa 0,0 l/m 16,6 km/h (3 Bft) N-NW22.5 330 0 min 301 lux 0 W/m
26.04.2017 21:05 7,2 C 63 % 1011,8 hPa 0,0 l/m 9,0 km/h (2 Bft) N-NW22.5 340 0 min 301 lux 0 W/m
26.04.2017 21:10 7,2 C 63 % 1011,8 hPa 0,0 l/m 8,9 km/h (2 Bft) N-NW22.5 345 0 min 41 lux 0 W/m
26.04.2017 21:15 7,2 C 63 % 1012,8 hPa 0,0 l/m 11,0 km/h (2 Bft) N-NW22.5 340 0 min 28 lux 0 W/m
26.04.2017 21:20 7,0 C 64 % 1012,8 hPa 0,0 l/m 16,3 km/h (3 Bft) N-NW22.5 345 0 min 28 lux 0 W/m
26.04.2017 21:25 6,8 C 66 % 1012,8 hPa 0,0 l/m 12,3 km/h (2 Bft) NW22.5 325 0 min 6 lux 0 W/m
26.04.2017 21:30 6,8 C 66 % 1012,8 hPa 0,0 l/m 21,5 km/h (4 Bft) NW22.5 325 0 min 6 lux 0 W/m
26.04.2017 21:35 6,7 C 66 % 1012,8 hPa 0,0 l/m 11,5 km/h (2 Bft) N-NW22.5 335 0 min 6 lux 0 W/m
26.04.2017 21:40 6,6 C 67 % 1012,8 hPa 0,0 l/m 11,2 km/h (2 Bft) N-NW67.5 335 0 min 6 lux 0 W/m
26.04.2017 21:45 6,6 C 67 % 1012,8 hPa 0,0 l/m 7,3 km/h (2 Bft) N22.5 350 0 min 6 lux 0 W/m
26.04.2017 21:50 6,4 C 67 % 1012,8 hPa 0,0 l/m 8,4 km/h (2 Bft) N-NW22.5 345 0 min 6 lux 0 W/m
26.04.2017 21:55 6,3 C 68 % 1012,8 hPa 0,0 l/m 10,2 km/h (2 Bft) N22.5 5 0 min 6 lux 0 W/m
26.04.2017 22:00 6,2 C 68 % 1012,8 hPa 0,0 l/m 6,5 km/h (2 Bft) N22.5 350 0 min 6 lux 0 W/m
26.04.2017 22:05 6,1 C 68 % 1012,8 hPa 0,0 l/m 10,4 km/h (2 Bft) N22.5 5 0 min 6 lux 0 W/m
26.04.2017 22:10 6,0 C 68 % 1012,8 hPa 0,0 l/m 10,3 km/h (2 Bft) N22.5 360 0 min 6 lux 0 W/m
26.04.2017 22:15 5,9 C 69 % 1012,8 hPa 0,0 l/m 2,8 km/h (1 Bft) N22.5 360 0 min 6 lux 0 W/m
26.04.2017 22:20 5,8 C 69 % 1012,8 hPa 0,0 l/m 6,4 km/h (2 Bft) N22.5 360 0 min 6 lux 0 W/m
26.04.2017 22:26 5,7 C 69 % 1012,8 hPa 0,0 l/m 1,0 km/h (0 Bft) N 360 0 min 6 lux 0 W/m
26.04.2017 22:30 5,6 C 70 % 1012,8 hPa 0,0 l/m 0,6 km/h (0 Bft) NW 315 0 min 6 lux 0 W/m
26.04.2017 22:35 5,5 C 70 % 1012,8 hPa 0,0 l/m 0,9 km/h (0 Bft) N-NW 330 0 min 6 lux 0 W/m
26.04.2017 22:40 5,3 C 70 % 1012,8 hPa 0,0 l/m 0,3 km/h (0 Bft) N-NW 345 0 min 6 lux 0 W/m
26.04.2017 22:45 5,3 C 70 % 1012,8 hPa 0,0 l/m 6,4 km/h (2 Bft) N 355 0 min 6 lux 0 W/m
26.04.2017 22:50 5,2 C 70 % 1012,8 hPa 0,0 l/m 4,4 km/h (1 Bft) N22.5 360 0 min 6 lux 0 W/m
26.04.2017 22:55 5,2 C 70 % 1012,8 hPa 0,0 l/m 3,2 km/h (1 Bft) N 360 0 min 6 lux 0 W/m
26.04.2017 23:00 5,3 C 71 % 1012,8 hPa 0,0 l/m 0,1 km/h (0 Bft) N 355 0 min 6 lux 0 W/m
26.04.2017 23:06 5,4 C 71 % 1012,8 hPa 0,0 l/m 3,2 km/h (1 Bft) N22.5 355 0 min 6 lux 0 W/m
26.04.2017 23:10 5,5 C 71 % 1012,8 hPa 0,0 l/m 5,6 km/h (2 Bft) N45 10 0 min 6 lux 0 W/m
26.04.2017 23:15 5,6 C 71 % 1012,8 hPa 0,0 l/m 0,6 km/h (0 Bft) N 355 0 min 6 lux 0 W/m
26.04.2017 23:20 5,5 C 71 % 1012,8 hPa 0,0 l/m 0,0 km/h (0 Bft) N 350 0 min 0 lux 0 W/m
26.04.2017 23:25 5,4 C 71 % 1013,8 hPa 0,0 l/m 1,7 km/h (1 Bft) N 350 0 min 0 lux 0 W/m
26.04.2017 23:30 5,4 C 71 % 1013,8 hPa 0,0 l/m 6,0 km/h (2 Bft) N 350 0 min 0 lux 0 W/m
26.04.2017 23:35 5,4 C 71 % 1013,8 hPa 0,0 l/m 0,9 km/h (0 Bft) N-NW 335 0 min 0 lux 0 W/m
26.04.2017 23:40 5,4 C 71 % 1013,8 hPa 0,0 l/m 5,1 km/h (1 Bft) N 350 0 min 0 lux 0 W/m
26.04.2017 23:45 5,5 C 72 % 1013,8 hPa 0,0 l/m 6,1 km/h (2 Bft) N-NW 340 0 min 0 lux 0 W/m
26.04.2017 23:50 5,6 C 72 % 1013,8 hPa 0,0 l/m 3,3 km/h (1 Bft) N 350 0 min 0 lux 0 W/m
26.04.2017 23:55 5,6 C 72 % 1013,8 hPa 0,0 l/m 1,3 km/h (1 Bft) N 350 0 min 0 lux 0 W/m
_ Min-Zeit 04:55 15:40 00:45 - 01:15 - - - - -
Minimum _ 1,2 C 44 % 1008,9 hPa - 0,0 km/h (0 Bft) - - - - -
_ Max-Zeit 15:25 05:00 23:25 14:10 16:15 - - 18:56 11:20 11:20
Maximum _ 11,8 C 80 % 1013,8 hPa 0,4 l/m 32,2 km/h
W (5 Bft)
- - 6 min 89,0 klux 609 W/m
Durchschnitt _ 5,9 C 69 % 1010,6 hPa #0,6 l/m 8,0 km/h (2 Bft) SW - #2:41 h 11,9 klux 140 W/m